Pagina principale
METAR-TAF:

METAR-TAF

Aeroporti :

Emmen, Svizzera

latitudine: 47-05-32N, longitudine: 8-18-16E, altezza: 426 m

Osservazione

Il bollettino è stato emesso 25 minuti fa, alle 15:20 UTC
Vento 4 kt da nord, variando fra nord/nord-ovest e est/nord-est
Temperature 28°C
Umidità 28%
Pressione 1014 hPa
Visibilità 10 km o più

METAR: LSME 131520Z AUTO 01004KT 330V070 9999NDV NCD 28/08 Q1014 RMK

Ora: 17:45 (15:45 UTC)


TAF: mancante

Osservazioni e previsioni meteorologiche di più di 4000 aeroporti (messaggi METAR e TAF).

Le stazioni disponibili sono rappresentate dai dischi gialli e rossi sulla carta.

Puntare il mouse per vedere il nome della stazione.

Clicca sopra per visualizzare le osservazioni e previsioni meteorologiche.

Per cambiare la mappa : fare clic sui pulsanti verdi con una croce nera per ingrandire, il pulsante verde con un trattino per diminuire, o sulla freccia verde per le mappe adiacenti.


METAR-TAF: